Location: Home
(42.5358°N, 72.7383°W)
Time: 18:37:03
(UTC-05:00)

Tiros 1 - Pass Details

Date: 03 December 2021
Orbit: 629 x 664 km, 48.4° (Epoch: 26 January)

Event Time Altitude Azimuth Distance (km) Brightness Sun altitude
Rises 19:54:10 0° 262° (W) 2,923 11.4 -39.1°
Reaches altitude 10° 19:56:32 10° 268° (W) 2,021 10.4 -39.5°
Enters shadow 19:56:56 12° 269° (W) 1,873 10.2 -39.6°
